ニート彗星

P/2001 Q11 ( NEAT )

English version
Home page
Updated on July 31, 2010

---------------------------------------------------------------------

・ プロフィール

発見日 2001年8月18日
発見光度 18.9等
発見者 Maik Meyer (NEAT)

・ 軌道要素

Epoch 2001 June 20.0 TT = JDT 2452080.5
T 2001 June 22.35096 TT                                 MPC
q   1.8516286            (2000.0)            P               Q
n   0.15944553     Peri.  202.27293     +0.96904840     +0.15291746
a   3.3681737      Node   147.01235     -0.13601564     +0.98586938
e   0.4502574      Incl.   20.85256     -0.20602170     +0.06839456
P   6.18

・ 光度変化

        m1 = 14.5 + 5 logΔ + 10.0 log r

---------------------------------------------------------------------

軌道要素はM.P.E.C. 2010-F38に掲載されたものです。
光度グラフはComet for Windowsで作成したものです。

---------------------------------------------------------------------

Copyright(C) Seiichi Yoshida (comet@aerith.net). All rights reserved.